Time,TemperatureF,DewpointF,PressureIn,WindDirection,WindDirectionDegrees,WindSpeedMPH,WindSpeedGustMPH,Humidity,HourlyPrecipIn,Conditions,Clouds,dailyrainin,SoftwareType,DateUTC
2013-01-09 00:03:00,46.0,41.0,-100.00,SSW,195,0.0,0.0,83,-99.99,,,-99.99,,2013-01-09 05:03:00,
2013-01-09 00:22:00,46.0,41.0,-100.00,East,100,1.0,2.0,84,-99.99,,,-99.99,,2013-01-09 05:22:00,
2013-01-09 00:33:00,46.0,41.0,-100.00,North,0,0.0,2.0,84,-99.99,,,-99.99,,2013-01-09 05:33:00,
2013-01-09 00:43:00,46.0,41.0,-100.00,NW,310,0.0,1.0,84,-99.99,,,-99.99,,2013-01-09 05:43:00,
2013-01-09 00:52:00,46.0,41.0,-100.00,East,90,1.0,2.0,84,-99.99,,,-99.99,,2013-01-09 05:52:00,
2013-01-09 01:02:00,46.0,41.0,-100.00,NW,315,0.0,1.0,84,-99.99,,,-99.99,,2013-01-09 06:02:00,
2013-01-09 01:12:00,46.0,41.0,-100.00,NW,320,1.0,2.0,84,-99.99,,,-99.99,,2013-01-09 06:12:00,
2013-01-09 01:22:00,46.0,42.0,-100.00,North,10,0.0,1.0,84,-99.99,,,-99.99,,2013-01-09 06:22:00,
2013-01-09 01:32:00,46.0,41.0,-100.00,NW,305,1.0,2.0,83,-99.99,,,-99.99,,2013-01-09 06:32:00,
2013-01-09 01:42:00,47.0,41.0,-100.00,North,5,1.0,3.0,82,-99.99,,,-99.99,,2013-01-09 06:42:00,
2013-01-09 01:52:00,47.0,42.0,-100.00,NNW,340,0.0,1.0,82,-99.99,,,-99.99,,2013-01-09 06:52:00,
2013-01-09 02:02:00,47.0,41.0,-100.00,East,100,1.0,2.0,82,-99.99,,,-99.99,,2013-01-09 07:02:00,
2013-01-09 02:12:00,46.0,42.0,-100.00,SE,125,0.0,1.0,83,-99.99,,,-99.99,,2013-01-09 07:12:00,
2013-01-09 02:22:00,46.0,42.0,-100.00,SE,125,0.0,1.0,83,-99.99,,,-99.99,,2013-01-09 07:22:00,
2013-01-09 02:32:00,46.0,42.0,-100.00,SSW,205,0.0,0.0,83,-99.99,,,-99.99,,2013-01-09 07:32:00,
2013-01-09 02:42:00,46.0,42.0,-100.00,SSW,205,0.0,0.0,84,-99.99,,,-99.99,,2013-01-09 07:42:00,
2013-01-09 02:52:00,47.0,42.0,-100.00,NNE,15,0.0,2.0,84,-99.99,,,-99.99,,2013-01-09 07:52:00,
2013-01-09 03:02:00,47.0,42.0,-100.00,NE,45,0.0,2.0,84,-99.99,,,-99.99,,2013-01-09 08:02:00,
2013-01-09 03:12:00,47.0,42.0,-100.00,NNE,15,1.0,1.0,84,-99.99,,,-99.99,,2013-01-09 08:12:00,
2013-01-09 03:22:00,47.0,42.0,-100.00,NNW,340,0.0,2.0,84,-99.99,,,-99.99,,2013-01-09 08:22:00,
2013-01-09 03:32:00,47.0,42.0,-100.00,NNW,340,0.0,1.0,84,-99.99,,,-99.99,,2013-01-09 08:32:00,
2013-01-09 03:43:00,47.0,42.0,-100.00,NNW,345,0.0,1.0,84,-99.99,,,-99.99,,2013-01-09 08:43:00,
2013-01-09 03:53:00,47.0,42.0,-100.00,SE,135,0.0,1.0,84,-99.99,,,-99.99,,2013-01-09 08:53:00,
2013-01-09 04:02:00,47.0,42.0,-100.00,North,10,0.0,1.0,83,-99.99,,,-99.99,,2013-01-09 09:02:00,
2013-01-09 04:12:00,46.0,42.0,-100.00,NE,45,1.0,3.0,83,-99.99,,,-99.99,,2013-01-09 09:12:00,
2013-01-09 04:22:00,46.0,41.0,-100.00,ESE,115,0.0,1.0,84,-99.99,,,-99.99,,2013-01-09 09:22:00,
2013-01-09 04:32:00,46.0,42.0,-100.00,ESE,115,1.0,1.0,86,-99.99,,,-99.99,,2013-01-09 09:32:00,
2013-01-09 04:42:00,46.0,42.0,-100.00,NNW,345,1.0,1.0,86,-99.99,,,-99.99,,2013-01-09 09:42:00,
2013-01-09 04:53:00,46.0,42.0,-100.00,NNW,340,1.0,1.0,86,-99.99,,,-99.99,,2013-01-09 09:53:00,
2013-01-09 05:02:00,46.0,42.0,-100.00,WSW,240,0.0,0.0,86,-99.99,,,-99.99,,2013-01-09 10:02:00,
2013-01-09 05:12:00,46.0,42.0,-100.00,SSW,205,0.0,1.0,86,-99.99,,,-99.99,,2013-01-09 10:12:00,
2013-01-09 05:22:00,46.0,42.0,-100.00,NNE,30,0.0,0.0,86,-99.99,,,-99.99,,2013-01-09 10:22:00,
2013-01-09 05:32:00,46.0,42.0,-100.00,East,90,1.0,1.0,86,-99.99,,,-99.99,,2013-01-09 10:32:00,
2013-01-09 05:42:00,47.0,43.0,-100.00,SE,135,0.0,0.0,86,-99.99,,,-99.99,,2013-01-09 10:42:00,
2013-01-09 05:52:00,47.0,43.0,-100.00,North,0,1.0,2.0,86,-99.99,,,-99.99,,2013-01-09 10:52:00,
2013-01-09 06:02:00,47.0,43.0,-100.00,South,175,0.0,1.0,86,-99.99,,,-99.99,,2013-01-09 11:02:00,
2013-01-09 06:12:00,47.0,43.0,-100.00,SSE,155,1.0,1.0,86,-99.99,,,-99.99,,2013-01-09 11:12:00,
2013-01-09 06:22:00,47.0,43.0,-100.00,West,270,0.0,1.0,86,-99.99,,,-99.99,,2013-01-09 11:22:00,
2013-01-09 06:33:00,47.0,43.0,-100.00,SSW,195,0.0,1.0,86,-99.99,,,-99.99,,2013-01-09 11:33:00,
2013-01-09 06:42:00,47.0,43.0,-100.00,SSW,205,1.0,2.0,86,-99.99,,,-99.99,,2013-01-09 11:42:00,
2013-01-09 06:53:00,47.0,43.0,-100.00,West,260,0.0,1.0,86,-99.99,,,-99.99,,2013-01-09 11:53:00,
2013-01-09 07:03:00,48.0,43.0,-100.00,SSW,195,1.0,2.0,85,-99.99,,,-99.99,,2013-01-09 12:03:00,
2013-01-09 07:12:00,48.0,43.0,-100.00,SSW,210,0.0,1.0,85,-99.99,,,-99.99,,2013-01-09 12:12:00,
2013-01-09 07:23:00,48.0,43.0,-100.00,SSW,200,0.0,1.0,85,-99.99,,,-99.99,,2013-01-09 12:23:00,
2013-01-09 07:33:00,48.0,43.0,-100.00,ENE,65,0.0,1.0,85,-99.99,,,-99.99,,2013-01-09 12:33:00,
2013-01-09 07:43:00,48.0,44.0,-100.00,NNE,25,0.0,1.0,86,-99.99,,,-99.99,,2013-01-09 12:43:00,
2013-01-09 07:52:00,48.0,44.0,-100.00,East,85,1.0,1.0,86,-99.99,,,-99.99,,2013-01-09 12:52:00,
2013-01-09 08:03:00,48.0,44.0,-100.00,East,85,0.0,1.0,86,-99.99,,,-99.99,,2013-01-09 13:03:00,
2013-01-09 08:12:00,48.0,44.0,-100.00,East,85,0.0,0.0,86,-99.99,,,-99.99,,2013-01-09 13:12:00,
2013-01-09 08:23:00,48.0,44.0,-100.00,ESE,110,0.0,1.0,85,-99.99,,,-99.99,,2013-01-09 13:23:00,
2013-01-09 08:33:00,48.0,44.0,-100.00,South,170,0.0,1.0,86,-99.99,,,-99.99,,2013-01-09 13:33:00,
2013-01-09 08:43:00,48.0,44.0,-100.00,ENE,75,1.0,2.0,85,-99.99,,,-99.99,,2013-01-09 13:43:00,
2013-01-09 08:52:00,48.0,44.0,-100.00,SE,145,0.0,1.0,85,-99.99,,,-99.99,,2013-01-09 13:52:00,
2013-01-09 09:03:00,49.0,44.0,-100.00,South,190,1.0,1.0,85,-99.99,,,-99.99,,2013-01-09 14:03:00,
2013-01-09 09:12:00,49.0,44.0,-100.00,North,0,3.0,4.0,84,-99.99,,,-99.99,,2013-01-09 14:12:00,
2013-01-09 09:23:00,50.0,44.0,-100.00,NW,320,2.0,3.0,82,-99.99,,,-99.99,,2013-01-09 14:23:00,
2013-01-09 09:33:00,50.0,45.0,-100.00,South,185,0.0,1.0,81,-99.99,,,-99.99,,2013-01-09 14:33:00,
2013-01-09 09:43:00,51.0,45.0,-100.00,SW,220,0.0,2.0,80,-99.99,,,-99.99,,2013-01-09 14:43:00,
2013-01-09 09:53:00,51.0,45.0,-100.00,NW,325,0.0,3.0,79,-99.99,,,-99.99,,2013-01-09 14:53:00,
2013-01-09 10:03:00,51.0,45.0,-100.00,South,190,0.0,2.0,79,-99.99,,,-99.99,,2013-01-09 15:03:00,
2013-01-09 10:13:00,52.0,45.0,-100.00,SE,125,1.0,2.0,78,-99.99,,,-99.99,,2013-01-09 15:13:00,
2013-01-09 10:23:00,53.0,46.0,-100.00,SE,145,2.0,4.0,77,-99.99,,,-99.99,,2013-01-09 15:23:00,
2013-01-09 10:33:00,53.0,46.0,-100.00,SW,230,1.0,4.0,76,-99.99,,,-99.99,,2013-01-09 15:33:00,
2013-01-09 10:43:00,54.0,47.0,-100.00,SW,230,1.0,4.0,76,-99.99,,,-99.99,,2013-01-09 15:43:00,
2013-01-09 10:53:00,54.0,47.0,-100.00,SSE,165,2.0,4.0,76,-99.99,,,-99.99,,2013-01-09 15:53:00,
2013-01-09 11:03:00,54.0,47.0,-100.00,South,170,3.0,5.0,76,-99.99,,,-99.99,,2013-01-09 16:03:00,
2013-01-09 11:12:00,55.0,47.0,-100.00,SSW,195,1.0,5.0,76,-99.99,,,-99.99,,2013-01-09 16:12:00,
2013-01-09 11:23:00,55.0,48.0,-100.00,SW,220,1.0,2.0,76,-99.99,,,-99.99,,2013-01-09 16:23:00,
2013-01-09 11:33:00,55.0,47.0,-100.00,NNE,20,3.0,4.0,74,-99.99,,,-99.99,,2013-01-09 16:33:00,
2013-01-09 11:43:00,55.0,47.0,-100.00,North,0,1.0,4.0,75,-99.99,,,-99.99,,2013-01-09 16:43:00,
2013-01-09 11:53:00,55.0,47.0,-100.00,NE,35,2.0,3.0,75,-99.99,,,-99.99,,2013-01-09 16:53:00,
2013-01-09 12:03:00,55.0,47.0,-100.00,NNW,345,0.0,4.0,75,-99.99,,,-99.99,,2013-01-09 17:03:00,
2013-01-09 12:12:00,56.0,48.0,-100.00,SW,220,1.0,1.0,75,-99.99,,,-99.99,,2013-01-09 17:12:00,
2013-01-09 12:23:00,56.0,48.0,-100.00,SSW,210,1.0,1.0,74,-99.99,,,-99.99,,2013-01-09 17:23:00,
2013-01-09 12:33:00,57.0,49.0,-100.00,SW,225,0.0,3.0,74,-99.99,,,-99.99,,2013-01-09 17:33:00,
2013-01-09 12:43:00,57.0,49.0,-100.00,SW,220,1.0,1.0,74,-99.99,,,-99.99,,2013-01-09 17:43:00,
2013-01-09 12:53:00,58.0,49.0,-100.00,NNW,340,1.0,2.0,74,-99.99,,,-99.99,,2013-01-09 17:53:00,
2013-01-09 13:03:00,58.0,50.0,-100.00,NW,315,0.0,2.0,74,-99.99,,,-99.99,,2013-01-09 18:03:00,
2013-01-09 13:12:00,58.0,50.0,-100.00,SW,215,0.0,0.0,74,-99.99,,,-99.99,,2013-01-09 18:12:00,
2013-01-09 13:24:00,59.0,50.0,-100.00,East,100,0.0,1.0,74,-99.99,,,-99.99,,2013-01-09 18:24:00,
2013-01-09 13:33:00,59.0,51.0,-100.00,NNE,30,2.0,4.0,74,-99.99,,,-99.99,,2013-01-09 18:33:00,
2013-01-09 13:43:00,59.0,51.0,-100.00,NNE,20,1.0,4.0,74,-99.99,,,-99.99,,2013-01-09 18:43:00,
2013-01-09 13:53:00,59.0,51.0,-100.00,ENE,65,1.0,3.0,74,-99.99,,,-99.99,,2013-01-09 18:53:00,
2013-01-09 14:03:00,60.0,51.0,-100.00,NW,315,1.0,1.0,74,-99.99,,,-99.99,,2013-01-09 19:03:00,
2013-01-09 14:13:00,60.0,52.0,-100.00,SE,145,1.0,4.0,75,-99.99,,,-99.99,,2013-01-09 19:13:00,
2013-01-09 14:23:00,60.0,52.0,-100.00,SE,140,0.0,1.0,75,-99.99,,,-99.99,,2013-01-09 19:23:00,
2013-01-09 14:33:00,60.0,52.0,-100.00,SE,140,0.0,1.0,75,-99.99,,,-99.99,,2013-01-09 19:33:00,
2013-01-09 14:43:00,60.0,52.0,-100.00,SE,140,0.0,1.0,75,-99.99,,,-99.99,,2013-01-09 19:43:00,
2013-01-09 14:52:00,60.0,52.0,-100.00,South,190,0.0,1.0,77,-99.99,,,-99.99,,2013-01-09 19:52:00,
2013-01-09 15:03:00,60.0,53.0,-100.00,North,355,1.0,2.0,79,-99.99,,,-99.99,,2013-01-09 20:03:00,
2013-01-09 15:12:00,59.0,52.0,-100.00,East,85,1.0,2.0,79,-99.99,,,-99.99,,2013-01-09 20:12:00,
2013-01-09 15:23:00,59.0,52.0,-100.00,NE,45,1.0,2.0,79,-99.99,,,-99.99,,2013-01-09 20:23:00,
2013-01-09 15:33:00,59.0,52.0,-100.00,NNW,340,2.0,3.0,79,-99.99,,,-99.99,,2013-01-09 20:33:00,
2013-01-09 15:43:00,58.0,52.0,-100.00,WNW,285,1.0,4.0,80,-99.99,,,-99.99,,2013-01-09 20:43:00,
2013-01-09 15:53:00,58.0,52.0,-100.00,WNW,290,1.0,2.0,81,-99.99,,,-99.99,,2013-01-09 20:53:00,
2013-01-09 16:04:00,58.0,52.0,-100.00,North,5,0.0,3.0,81,-99.99,,,-99.99,,2013-01-09 21:04:00,
2013-01-09 16:13:00,58.0,52.0,-100.00,NW,315,1.0,2.0,81,-99.99,,,-99.99,,2013-01-09 21:13:00,
2013-01-09 16:23:00,58.0,52.0,-100.00,WNW,300,2.0,3.0,81,-99.99,,,-99.99,,2013-01-09 21:23:00,
2013-01-09 16:33:00,58.0,52.0,-100.00,NW,305,1.0,4.0,81,-99.99,,,-99.99,,2013-01-09 21:33:00,
2013-01-09 16:43:00,57.0,52.0,-100.00,WNW,300,1.0,1.0,82,-99.99,,,-99.99,,2013-01-09 21:43:00,
2013-01-09 16:52:00,57.0,52.0,-100.00,NW,310,1.0,2.0,82,-99.99,,,-99.99,,2013-01-09 21:52:00,
2013-01-09 17:03:00,57.0,52.0,-100.00,NNW,330,3.0,4.0,82,-99.99,,,-99.99,,2013-01-09 22:03:00,
2013-01-09 17:12:00,57.0,52.0,-100.00,NW,320,1.0,3.0,83,-99.99,,,-99.99,,2013-01-09 22:12:00,
2013-01-09 17:23:00,57.0,52.0,-100.00,WNW,295,1.0,2.0,83,-99.99,,,-99.99,,2013-01-09 22:23:00,
2013-01-09 17:33:00,56.0,51.0,-100.00,NW,305,1.0,2.0,83,-99.99,,,-99.99,,2013-01-09 22:33:00,
2013-01-09 17:43:00,56.0,51.0,-100.00,WNW,290,1.0,2.0,83,-99.99,,,-99.99,,2013-01-09 22:43:00,
2013-01-09 17:52:00,56.0,51.0,-100.00,West,280,0.0,1.0,84,-99.99,,,-99.99,,2013-01-09 22:52:00,
2013-01-09 18:03:00,56.0,51.0,-100.00,North,0,1.0,4.0,84,-99.99,,,-99.99,,2013-01-09 23:03:00,
2013-01-09 18:13:00,55.0,51.0,-100.00,North,0,0.0,2.0,85,-99.99,,,-99.99,,2013-01-09 23:13:00,
2013-01-09 18:23:00,55.0,51.0,-100.00,West,275,0.0,1.0,85,-99.99,,,-99.99,,2013-01-09 23:23:00,
2013-01-09 18:33:00,55.0,51.0,-100.00,SSW,200,0.0,0.0,87,-99.99,,,-99.99,,2013-01-09 23:33:00,
2013-01-09 18:43:00,54.0,51.0,-100.00,SE,140,0.0,1.0,88,-99.99,,,-99.99,,2013-01-09 23:43:00,
2013-01-09 18:52:00,54.0,51.0,-100.00,NNE,20,1.0,4.0,88,-99.99,,,-99.99,,2013-01-09 23:52:00,
2013-01-09 19:03:00,54.0,50.0,-100.00,NNE,25,1.0,3.0,88,-99.99,,,-99.99,,2013-01-10 00:03:00,
2013-01-09 19:12:00,54.0,51.0,-100.00,NE,35,0.0,1.0,89,-99.99,,,-99.99,,2013-01-10 00:12:00,
2013-01-09 19:22:00,54.0,51.0,-100.00,NNE,25,0.0,2.0,90,-99.99,,,-99.99,,2013-01-10 00:22:00,
2013-01-09 19:32:00,53.0,51.0,-100.00,SW,230,1.0,1.0,91,-99.99,,,-99.99,,2013-01-10 00:32:00,
2013-01-09 19:42:00,54.0,51.0,-100.00,West,270,0.0,1.0,91,-99.99,,,-99.99,,2013-01-10 00:42:00,
2013-01-09 19:53:00,54.0,51.0,-100.00,North,350,1.0,3.0,91,-99.99,,,-99.99,,2013-01-10 00:53:00,
2013-01-09 20:03:00,53.0,51.0,-100.00,NE,45,0.0,1.0,92,-99.99,,,-99.99,,2013-01-10 01:03:00,
2013-01-09 20:12:00,53.0,51.0,-100.00,SW,220,0.0,1.0,94,-99.99,,,-99.99,,2013-01-10 01:12:00,
2013-01-09 20:22:00,52.0,51.0,-100.00,SW,220,0.0,1.0,95,-99.99,,,-99.99,,2013-01-10 01:22:00,
2013-01-09 20:33:00,53.0,51.0,-100.00,North,0,0.0,1.0,96,-99.99,,,-99.99,,2013-01-10 01:33:00,
2013-01-09 20:43:00,52.0,51.0,-100.00,NNW,330,2.0,4.0,96,-99.99,,,-99.99,,2013-01-10 01:43:00,
2013-01-09 20:52:00,52.0,52.0,-100.00,NNW,345,1.0,5.0,98,-99.99,,,-99.99,,2013-01-10 01:52:00,
2013-01-09 21:03:00,52.0,51.0,-100.00,West,265,0.0,2.0,98,-99.99,,,-99.99,,2013-01-10 02:03:00,
2013-01-09 21:12:00,52.0,51.0,-100.00,SSW,210,1.0,2.0,99,-99.99,,,-99.99,,2013-01-10 02:12:00,
2013-01-09 21:22:00,52.0,51.0,-100.00,SE,140,0.0,2.0,99,-99.99,,,-99.99,,2013-01-10 02:22:00,
2013-01-09 21:32:00,51.0,51.0,-100.00,SW,230,1.0,3.0,99,-99.99,,,-99.99,,2013-01-10 02:32:00,
2013-01-09 21:43:00,51.0,51.0,-100.00,SW,230,1.0,3.0,99,-99.99,,,-99.99,,2013-01-10 02:43:00,
2013-01-09 21:52:00,51.0,51.0,-100.00,SW,230,1.0,3.0,99,-99.99,,,-99.99,,2013-01-10 02:52:00,
2013-01-09 22:03:00,51.0,51.0,-100.00,ESE,120,0.0,1.0,99,-99.99,,,-99.99,,2013-01-10 03:03:00,
2013-01-09 22:12:00,51.0,50.0,-100.00,South,190,0.0,1.0,99,-99.99,,,-99.99,,2013-01-10 03:12:00,
2013-01-09 22:22:00,50.0,50.0,-100.00,West,270,0.0,2.0,99,-99.99,,,-99.99,,2013-01-10 03:22:00,
2013-01-09 22:33:00,50.0,50.0,-100.00,SW,215,1.0,1.0,99,-99.99,,,-99.99,,2013-01-10 03:33:00,
2013-01-09 22:43:00,50.0,50.0,-100.00,North,10,0.0,2.0,99,-99.99,,,-99.99,,2013-01-10 03:43:00,
2013-01-09 22:52:00,50.0,50.0,-100.00,North,10,0.0,2.0,99,-99.99,,,-99.99,,2013-01-10 03:52:00,
2013-01-09 23:02:00,50.0,50.0,-100.00,North,350,0.0,1.0,99,-99.99,,,-99.99,,2013-01-10 04:02:00,
2013-01-09 23:12:00,50.0,50.0,-100.00,South,185,1.0,2.0,99,-99.99,,,-99.99,,2013-01-10 04:12:00,
2013-01-09 23:22:00,50.0,49.0,-100.00,South,185,0.0,1.0,99,-99.99,,,-99.99,,2013-01-10 04:22:00,
2013-01-09 23:32:00,50.0,50.0,-100.00,NNE,20,1.0,2.0,99,-99.99,,,-99.99,,2013-01-10 04:32:00,
2013-01-09 23:43:00,50.0,50.0,-100.00,North,0,0.0,2.0,99,-99.99,,,-99.99,,2013-01-10 04:43:00,
2013-01-09 23:52:00,50.0,49.0,-100.00,SSW,205,1.0,2.0,99,-99.99,,,-99.99,,2013-01-10 04:52:00,